| time (UTC) | temp F | wind direction | speed MPH | gust MPH | rain 1hr in | rain 24hr in | rain mn in | humidity % | barometer mb |
| 20260510223003 | 87 | 333 | 0.0 | 0.0 | 0.00 | 0.00 | 0.00 | 46 | 1012.0 |
| 20260510221600 | 86 | 320 | 0.0 | 0.0 | 0.00 | 0.00 | 0.00 | 47 | 1012.2 |
| 20260510220057 | 85 | 245 | 0.0 | 0.0 | 0.00 | 0.00 | 0.00 | 49 | 1012.3 |
| 20260510214556 | 85 | 262 | 0.0 | 0.0 | 0.00 | 0.00 | 0.00 | 48 | 1012.6 |
| 20260510213054 | 84 | 313 | 0.0 | 0.0 | 0.00 | 0.00 | 0.00 | 49 | 1012.8 |
| 20260510211550 | 84 | 305 | 0.0 | 0.0 | 0.00 | 0.00 | 0.00 | 49 | 1012.9 |
| 20260510204545 | 82 | 355 | 0.0 | 0.0 | 0.00 | 0.00 | 0.00 | 49 | 1013.1 |
| 20260510203044 | 81 | 261 | 0.0 | 0.0 | 0.00 | 0.00 | 0.00 | 49 | 1013.2 |
| 20260510201540 | 81 | 349 | 0.0 | 0.0 | 0.00 | 0.00 | 0.00 | 50 | 1013.3 |
| 20260510200039 | 80 | 252 | 0.0 | 0.0 | 0.00 | 0.00 | 0.00 | 51 | 1013.5 |
| 20260510194534 | 79 | 262 | 0.0 | 0.0 | 0.00 | 0.00 | 0.00 | 53 | 1013.6 |
| 20260510193029 | 78 | 224 | 0.0 | 0.0 | 0.00 | 0.00 | 0.00 | 54 | 1013.8 |
| 20260510191524 | 76 | 250 | 0.0 | 0.0 | 0.00 | 0.00 | 0.00 | 54 | 1013.9 |
| 20260510190028 | 76 | 258 | 0.0 | 0.0 | 0.00 | 0.00 | 0.00 | 56 | 1014.1 |
| 20260510184518 | 75 | 265 | 0.0 | 0.0 | 0.00 | 0.00 | 0.00 | 57 | 1014.2 |
| 20260510183030 | 73 | 232 | 0.0 | 0.0 | 0.00 | 0.00 | 0.00 | 59 | 1014.3 |
| 20260510181509 | 73 | 262 | 0.0 | 0.0 | 0.00 | 0.00 | 0.00 | 60 | 1014.2 |
| 20260510180006 | 72 | 220 | 0.0 | 0.0 | 0.00 | 0.00 | 0.00 | 61 | 1014.3 |
| 20260510174503 | 71 | 255 | 0.0 | 0.0 | 0.00 | 0.00 | 0.00 | 61 | 1014.5 |
| 20260510173101 | 71 | 252 | 0.0 | 0.0 | 0.00 | 0.00 | 0.00 | 61 | 1014.4 |
| 20260510171603 | 70 | 221 | 0.0 | 0.0 | 0.00 | 0.00 | 0.00 | 64 | 1014.4 |
| 20260510170101 | 69 | 322 | 0.0 | 0.0 | 0.00 | 0.00 | 0.00 | 64 | 1014.3 |
| 20260510164558 | 68 | 279 | 0.0 | 0.0 | 0.00 | 0.00 | 0.00 | 67 | 1014.3 |
| 20260510163047 | 67 | 232 | 0.0 | 0.0 | 0.00 | 0.00 | 0.00 | 69 | 1014.3 |
| 20260510161547 | 66 | 314 | 0.0 | 0.0 | 0.00 | 0.00 | 0.00 | 71 | 1014.3 |
| 20260510160046 | 65 | 265 | 0.0 | 0.0 | 0.00 | 0.00 | 0.00 | 72 | 1014.3 |
| 20260510154536 | 65 | 231 | 0.0 | 0.0 | 0.00 | 0.00 | 0.00 | 74 | 1014.2 |
| 20260510153032 | 64 | 225 | 0.0 | 0.0 | 0.00 | 0.00 | 0.00 | 75 | 1014.1 |
| 20260510151523 | 63 | 186 | 0.0 | 0.0 | 0.00 | 0.00 | 0.00 | 78 | 1014.1 |
| 20260510150019 | 61 | 248 | 0.0 | 0.0 | 0.00 | 0.00 | 0.00 | 81 | 1014.0 |
| 20260510144522 | 60 | 267 | 0.0 | 0.0 | 0.00 | 0.00 | 0.00 | 84 | 1014.0 |
| 20260510143016 | 58 | 302 | 0.0 | 0.0 | 0.00 | 0.00 | 0.00 | 87 | 1013.8 |
| 20260510141512 | 57 | 252 | 0.0 | 0.0 | 0.00 | 0.00 | 0.00 | 88 | 1013.7 |
| 20260510140006 | 56 | 349 | 0.0 | 0.0 | 0.00 | 0.00 | 0.00 | 90 | 1013.5 |
| 20260510134502 | 55 | 318 | 0.0 | 0.0 | 0.00 | 0.00 | 0.00 | 91 | 1013.4 |
| 20260510133100 | 54 | 318 | 0.0 | 0.0 | 0.00 | 0.00 | 0.00 | 90 | 1013.2 |
| 20260510131600 | 54 | 318 | 0.0 | 0.0 | 0.00 | 0.00 | 0.00 | 89 | 1013.2 |
| 20260510130050 | 54 | 318 | 0.0 | 0.0 | 0.00 | 0.00 | 0.00 | 88 | 1013.0 |
| 20260510124608 | 54 | 318 | 0.0 | 0.0 | 0.00 | 0.00 | 0.00 | 87 | 1013.1 |
| 20260510123047 | 55 | 318 | 0.0 | 0.0 | 0.00 | 0.00 | 0.00 | 87 | 1013.0 |
| 20260510121544 | 55 | 318 | 0.0 | 0.0 | 0.00 | 0.00 | 0.00 | 87 | 1012.9 |
| 20260510120042 | 55 | 305 | 0.0 | 0.0 | 0.00 | 0.00 | 0.00 | 86 | 1012.9 |
| 20260510114542 | 56 | 305 | 0.0 | 0.0 | 0.00 | 0.00 | 0.00 | 86 | 1012.8 |
| 20260510113039 | 56 | 305 | 0.0 | 0.0 | 0.00 | 0.00 | 0.00 | 85 | 1012.9 |
| 20260510111559 | 56 | 305 | 0.0 | 0.0 | 0.00 | 0.00 | 0.00 | 85 | 1012.8 |
| 20260510110042 | 56 | 305 | 0.0 | 0.0 | 0.00 | 0.00 | 0.00 | 85 | 1012.7 |
| 20260510104541 | 57 | 288 | 0.0 | 0.0 | 0.00 | 0.00 | 0.00 | 84 | 1012.6 |
| 20260510103037 | 57 | 267 | 0.0 | 0.0 | 0.00 | 0.00 | 0.00 | 84 | 1012.7 |
| 20260510101531 | 57 | 263 | 0.0 | 0.0 | 0.00 | 0.00 | 0.00 | 83 | 1012.7 |
| 20260510100034 | 58 | 244 | 0.0 | 0.0 | 0.00 | 0.00 | 0.00 | 82 | 1012.7 |
| 20260510094531 | 58 | 264 | 0.0 | 0.0 | 0.00 | 0.00 | 0.00 | 82 | 1012.7 |
| 20260510093028 | 57 | 271 | 0.0 | 0.0 | 0.00 | 0.00 | 0.00 | 83 | 1012.7 |
| 20260510091542 | 58 | 269 | 0.0 | 0.0 | 0.00 | 0.00 | 0.00 | 83 | 1012.6 |
| 20260510090023 | 58 | 261 | 0.0 | 0.0 | 0.00 | 0.00 | 0.00 | 82 | 1012.6 |
| 20260510084525 | 59 | 261 | 0.0 | 0.0 | 0.00 | 0.00 | 0.00 | 80 | 1012.5 |
| 20260510083018 | 59 | 259 | 0.0 | 0.0 | 0.00 | 0.00 | 0.00 | 79 | 1012.4 |
| 20260510081531 | 60 | 274 | 0.0 | 0.0 | 0.00 | 0.00 | 0.00 | 76 | 1012.5 |
| 20260510080018 | 60 | 274 | 0.0 | 0.0 | 0.00 | 0.00 | 0.00 | 75 | 1012.5 |
| 20260510074512 | 61 | 249 | 0.0 | 0.0 | 0.00 | 0.00 | 0.00 | 74 | 1012.6 |
| 20260510073021 | 61 | 252 | 0.0 | 0.0 | 0.00 | 0.00 | 0.00 | 73 | 1012.6 |
| 20260510071511 | 62 | 271 | 0.0 | 0.0 | 0.00 | 0.00 | 0.00 | 72 | 1012.5 |
| 20260510070011 | 62 | 270 | 0.0 | 0.0 | 0.00 | 0.00 | 0.00 | 71 | 1012.5 |
| 20260510064516 | 63 | 269 | 0.0 | 0.0 | 0.00 | 0.00 | 0.00 | 70 | 1012.5 |
| 20260510063011 | 63 | 296 | 0.0 | 0.0 | 0.00 | 0.00 | 0.00 | 69 | 1012.4 |
| 20260510061505 | 64 | 256 | 0.0 | 0.0 | 0.00 | 0.00 | 0.00 | 68 | 1012.3 |
| 20260510060014 | 65 | 263 | 0.0 | 0.0 | 0.00 | 0.00 | 0.00 | 67 | 1012.4 |
| 20260510054502 | 65 | 306 | 0.0 | 0.0 | 0.00 | 0.00 | 0.00 | 67 | 1012.4 |
| 20260510053001 | 65 | 270 | 0.0 | 0.0 | 0.00 | 0.00 | 0.00 | 67 | 1012.1 |
| 20260510051501 | 66 | 255 | 0.0 | 0.0 | 0.00 | 0.00 | 0.00 | 66 | 1012.0 |
| 20260510050112 | 67 | 263 | 0.0 | 0.0 | 0.00 | 0.00 | 0.00 | 66 | 1012.1 |
| 20260510050001 | 67 | 258 | 0.0 | 0.0 | 0.00 | 0.00 | 0.00 | 66 | 1012.0 |
| 20260510044611 | 67 | 281 | 0.0 | 0.0 | 0.00 | 0.00 | 0.00 | 66 | 1011.9 |
| 20260510043100 | 68 | 265 | 0.0 | 0.0 | 0.00 | 0.00 | 0.00 | 66 | 1011.8 |
| 20260510041607 | 68 | 257 | 0.0 | 0.0 | 0.00 | 0.00 | 0.00 | 66 | 1011.8 |
| 20260510040059 | 69 | 250 | 0.0 | 0.0 | 0.00 | 0.00 | 0.00 | 65 | 1011.6 |
| 20260510034605 | 71 | 246 | 0.0 | 0.0 | 0.00 | 0.00 | 0.00 | 63 | 1011.5 |
| 20260510033057 | 72 | 245 | 0.0 | 0.0 | 0.00 | 0.00 | 0.00 | 59 | 1011.3 |
| 20260510031606 | 73 | 281 | 0.0 | 0.0 | 0.00 | 0.00 | 0.00 | 56 | 1011.1 |
| 20260510030103 | 75 | 244 | 0.0 | 0.0 | 0.00 | 0.00 | 0.00 | 56 | 1011.0 |
| 20260510024555 | 77 | 240 | 0.0 | 0.0 | 0.00 | 0.00 | 0.00 | 57 | 1010.9 |
| 20260510023053 | 78 | 257 | 0.0 | 0.0 | 0.00 | 0.00 | 0.00 | 53 | 1010.8 |
| 20260510021552 | 79 | 269 | 0.0 | 0.0 | 0.00 | 0.00 | 0.00 | 52 | 1010.8 |
| 20260510020052 | 80 | 259 | 0.0 | 0.0 | 0.00 | 0.00 | 0.00 | 51 | 1010.9 |
| 20260510014551 | 81 | 260 | 0.0 | 0.0 | 0.00 | 0.00 | 0.00 | 50 | 1010.9 |
| 20260510013054 | 82 | 257 | 0.0 | 0.0 | 0.00 | 0.00 | 0.00 | 49 | 1010.9 |
| 20260510011550 | 83 | 269 | 0.0 | 0.0 | 0.00 | 0.00 | 0.00 | 48 | 1010.9 |
| 20260510010049 | 84 | 279 | 0.0 | 0.0 | 0.00 | 0.00 | 0.00 | 48 | 1010.9 |
| 20260510004549 | 85 | 272 | 0.0 | 0.0 | 0.00 | 0.00 | 0.00 | 46 | 1010.9 |
| 20260510003056 | 86 | 279 | 0.0 | 0.0 | 0.00 | 0.00 | 0.00 | 44 | 1010.9 |
| 20260510001550 | 87 | 251 | 0.0 | 0.0 | 0.00 | 0.00 | 0.00 | 42 | 1010.9 |
| 20260510000046 | 88 | 296 | 0.0 | 0.0 | 0.00 | 0.00 | 0.00 | 43 | 1010.9 |
| 20260509234600 | 88 | 273 | 0.0 | 0.0 | 0.00 | 0.00 | 0.00 | 43 | 1011.0 |
| 20260509233053 | 89 | 250 | 0.0 | 0.0 | 0.00 | 0.00 | 0.00 | 41 | 1011.2 |
| 20260509231601 | 89 | 220 | 0.0 | 0.0 | 0.00 | 0.00 | 0.00 | 41 | 1011.2 |
| 20260509230039 | 88 | 273 | 0.0 | 0.0 | 0.00 | 0.00 | 0.00 | 41 | 1011.3 |
| 20260509224537 | 88 | 246 | 0.0 | 0.0 | 0.00 | 0.00 | 0.00 | 42 | 1011.5 |